Preview of NWS' New Version of Forecast
This preview is not operational and should not be used for support decisions.

Regional Weather Roundup (RWR)

Issued by National Weather Service (NWS)

                            
000
ASUS42 KTBW 171415
RWRFL 
FLORIDA REGIONAL WEATHER ROUNDUP
NATIONAL WEATHER SERVICE TAMPA BAY RUSKIN FL
1000 AM EDT MON JUN 17 2019

NOTE: "FAIR" INDICATES FEW OR NO CLOUDS BELOW 12,000 FEET WITH NO
SIGNIFICANT WEATHER AND/OR OBSTRUCTIONS TO VISIBILITY.

FLZ001>010-012>015-112-114-115-171500-
PANHANDLE FLORIDA
  
CITY           SKY/WX    TMP DP  RH WIND       PRES   REMARKS
PENSACOLA      FAIR      84  78  82 E7        30.00R HX  95           
PENSACOLA NAS  FAIR      85  75  72 SE9       30.00R                  
MILTON NAS     FAIR      82  74  76 VRB5      30.02R                  
CRESTVIEW      FAIR      85  72  65 VRB5      30.03S                  
DUKE FIELD     FAIR      85  71  63 E7        30.01S                  
VALPARAISO     PTSUNNY   84  73  70 E9        30.01R                  
MARY ESTHER    MOSUNNY   84  75  74 E3        30.00R                  
PANAMA CITY    FAIR      84  72  67 E6        30.01S                  
TYNDALL AFB    FAIR      83  74  75 SE6       30.01S                  
APALACHICOLA   PTSUNNY   82  73  74 SE6       30.02R                  

STATION/POSITION SKY/WX   TEMP    WIND        PRES    WAVE   SWELL
                          AIR SEA DIR/SP/G            HT/PER HT/PER
                          (F)     (DEG/KT/KT) (MB)    (FT/S) (FT/S)
30.1N   87.6W                                   N/A     2/ 3
29.2N   88.2W                     170/  6/ 10 1016.1R   1/ 4   2/ 4
PANAMA CITY BEAC           83 84   80/  3/  5 1016.9R
TOWER C          NOT AVBL

$$
FLZ011-016>038-118-127-128-134-139-239-171500-
NORTH FLORIDA
  
CITY           SKY/WX    TMP DP  RH WIND       PRES   REMARKS
MARIANNA       FAIR      82  73  74 S5        30.03R                  
TALLAHASSEE    PTSUNNY   80  75  84 E12       30.05R                  
PERRY          FAIR      81  75  82 SE8       30.07R                  
LIVE OAK       SUNNY     81  72  74 SE7       30.07S                  
CROSS CITY     FAIR      80  73  78 SE7       30.07S                  
LAKE CITY      FAIR      79  70  73 SE9       30.09R                  
GAINESVILLE    FAIR      86  72  62 SE7       30.10R                  
PALATKA        FAIR      82  72  69 SE10      30.08F                  
MAYPORT NAS    FAIR      83  74  74 SE10      30.09R                  
JACKSONVILLE   FAIR      85  71  63 SE10      30.08R                  
JAX NAS        PTSUNNY   84  69  60 S9        30.09S                  
JAX CECIL      MOSUNNY   86  72  62 SE9       30.09R                  
FERNANDINA BEA FAIR      82  74  78 SE7       30.10R                  
ST AUGUSTINE   FAIR      83  75  77 SE10      30.09F                  
PALM COAST     PTSUNNY   82  73  74 SE14      30.08S                  

STATION/POSITION SKY/WX   TEMP    WIND        PRES    WAVE   SWELL
                          AIR SEA DIR/SP/G            HT/PER HT/PER
                          (F)     (DEG/KT/KT) (MB)    (FT/S) (FT/S)
SHELL POINT      NOT AVBL
KEATON BEACH               80     130/  8/ 12 1017.9R
CEDAR KEY                                       N/A
FERNANDINA                    82  120/  5/  8 1019.7R
30.7N   81.3W                 82                N/A     2/ 6
MAYPORT                    81 81  150/  5/  9 1019.3R
31.4N   80.9W              81 82  220/  6/  8 1019.4R   2/ 8   2/ 8
ST AUGUSTINE               80 80  140/  6/  7 1019.0F

$$
FLZ040-043>046-052-053-057-058-063-144-171500-
INTERIOR CENTRAL FLORIDA
  
CITY           SKY/WX    TMP DP  RH WIND       PRES   REMARKS
OCALA          PTSUNNY   81  75  82 SE8       30.08R                  
LEESBURG       FAIR      82  74  76 SE9       30.07F                  
SANFORD        FAIR      80  73  79 SE12      30.07S                  
ORLANDO EXEC   FAIR      81  75  82 SE14      30.07S                  
ORLANDO INTL   PTSUNNY   81  75  82 E10       30.06S                  
KISSIMMEE      FAIR      82  75  79 E10       30.07S                  
WINTER HAVEN   FAIR      82  73  74 SE8       30.07S                  
LAKELAND       MOSUNNY   81  73  78 SE9       30.07R                  
BARTOW         MOSUNNY   82  75  78 SE12      30.06R                  
SEBRING        FAIR      82  75  78 E8        30.05S                  
OKEECHOBEE     FAIR      81  72  74 SE5       30.05S                  

$$
FLZ041-047-054-059-064-141-147-171500-
EAST CENTRAL FLORIDA
  
CITY           SKY/WX    TMP DP  RH WIND       PRES   REMARKS
ORMOND BEACH   MOSUNNY   79  73  83 SE8       30.08S                  
DAYTONA BEACH  FAIR      82  74  76 SE10      30.08S                  
DELAND         FAIR      81  73  78 SE10      30.07F                  
NEW SMYRNA BEA MOSUNNY   82  72  69 S8        30.09F                  
JFK SPACE CTR  PTSUNNY   79  65  61 SE9       30.07S                  
TITUSVILLE     MOSUNNY   84  72  65 SE10      30.08F                  
CAPE CANAVERAL FAIR      81 N/A N/A SE10      30.06S                  
PATRICK AFB    FAIR      82  76  83 E13       30.07R                  
MELBOURNE      PTSUNNY   82  71  69 E14       30.07R                  
VERO BEACH     FAIR      80  73  79 SE12      30.07S                  
FT PIERCE      PTSUNNY   80  70  71 SE12      30.06S                  
STUART         MOSUNNY   79  73  83 SE14      30.07                   

STATION/POSITION SKY/WX   TEMP    WIND        PRES    WAVE   SWELL
                          AIR SEA DIR/SP/G            HT/PER HT/PER
                          (F)     (DEG/KT/KT) (MB)    (FT/S) (FT/S)
28.5N   80.2W              78 83  110/ 12/ 14 1018.5F   2/ 8   2/ 8
28.9N   78.5W              82 83  140/ 12/ 14   N/A     3/ 8   2/ 8
TRIDENT PIER               79 78   80/  7/ 11 1019.7S
28.4N   80.5W                 78                N/A     3/ 4
27.5N   80.2W                 80                N/A     3/ 4

$$
FLZ050-056-061-142-242-148-248-149-249-151-251-155-255-
160-260-171500-
WEST CENTRAL FLORIDA
  
CITY           SKY/WX    TMP DP  RH WIND       PRES   REMARKS
CRYSTAL RIVER  PTSUNNY   81  73  78 SE8       30.06S                  
INVERNESS      PTSUNNY   82  81  94 SE9       30.07S HX  95           
BROOKSVILLE    FAIR      81  74  79 SE9       30.06S                  
CLEARWATER AIR PTSUNNY   79  72  78 SE7       30.04F                  
ST PETE CLEARW PTSUNNY   80  74  81 E9        30.04S                  
TAMPA INTL     PTSUNNY   82  74  76 E12       30.05S                  
TAMPA EXEC     PTSUNNY   81  73  78 SE6       30.06F                  
PLANT CITY     CLOUDY    81  75  83 E8        30.08S                  
MACDILL AFB    PTSUNNY   81  74  79 E9        30.05S                  
PETER O KNIGHT CLOUDY    82  82 100 E7        30.05F HX  97           
ST PETERSBURG  FAIR      77  73  87 SE12      30.01S                  
SARASOTA       CLOUDY    81  74  79 SE9       30.02S                  
VENICE         FAIR      81  77  89 SE7       30.04S                  

STATION/POSITION SKY/WX   TEMP    WIND        PRES    WAVE   SWELL
                          AIR SEA DIR/SP/G            HT/PER HT/PER
                          (F)     (DEG/KT/KT) (MB)    (FT/S) (FT/S)
27.3N   84.2W                 82                N/A     3/ 5
CLEARWATER BEACH           81 85  100/  6/ 10 1017.3F
MIDDLE TAMPA BAY                  140/ 10/ 12 1017.5R
VENICE                     79 85  120/  6/  7 1017.2R

$$
FLZ066-069-070-075>078-162-262-165-265-171500-
SOUTHWEST FLORIDA AND KEYS
  
CITY           SKY/WX    TMP DP  RH WIND       PRES   REMARKS
PUNTA GORDA    PTSUNNY   78  73  84 SE8       30.05S                  
FT MYERS       CLOUDY    71  71 100 SE6       30.03R                  
SOUTHWEST INTL PTSUNNY   81  74  79 E3        30.04R                  
NAPLES         PTSUNNY   77  77 100 NE3       30.03R                  
IMMOKALEE      FAIR      82  75  78 SE6       30.02S                  
MARATHON       FAIR      88  76  67 SE9       30.03R HX  99           
KEY WEST NAS   PTSUNNY   87  77  72 S12       30.03R HX  99           
KEY WEST INTL  FAIR      84  77  79 S9        30.03R                  

STATION/POSITION SKY/WX   TEMP    WIND        PRES    WAVE   SWELL
                          AIR SEA DIR/SP/G            HT/PER HT/PER
                          (F)     (DEG/KT/KT) (MB)    (FT/S) (FT/S)
NAPLES                        85              1017.0R
DRY TORTUGAS               83     190/ 11/ 13 1016.6R
SAND KEY                   83                 1016.8R
SOMBRERO KEY               83                 1016.3R

$$
FLZ067-068-071>074-168-172>174-171500-
SOUTHEAST FLORIDA 
  
CITY           SKY/WX    TMP DP  RH WIND       PRES   REMARKS
W PALM BEACH   LGT RAIN  79  74  84 SE7       30.06S                  
BOCA RATON     TSTM      73  70  88 E8G16     30.06S                  
FT LAUDER-EXEC PTSUNNY   77  73  87 SE10      30.05R                  
FT LAUDERDALE  PTSUNNY   78  74  87 SE13      30.04R                  
POMPANO BEACH  LGT RAIN  76  73  91 SE9       30.05R FOG              
PEMBROKE PINES PTSUNNY   80  72  76 E10       30.05S                  
OPA LOCKA      FAIR      83  74  74 SE7       30.04S                  
MIAMI          PTSUNNY   80  73  79 E6        30.03S                  
WEST KENDALL   PTSUNNY   85  77  77 S9        30.03S HX  95           
HOMESTEAD      CLOUDY    78  74  87 E5        30.03R                  

STATION/POSITION SKY/WX   TEMP    WIND        PRES    WAVE   SWELL
                          AIR SEA DIR/SP/G            HT/PER HT/PER
                          (F)     (DEG/KT/KT) (MB)    (FT/S) (FT/S)
PORT EVERGLADES            80     190/  4/  7 1016.9
VIRGINIA KEY               82 83  170/ 10/ 14 1016.4F
LAKE WORTH                 78 84  100/ 10/ 11 1018.6F
SETTLEMENT POINT           76     140/  7/  9 1018.6R

$$